Hourly Weather Roundup
Issued by NWS Central Illinois

Home | Current Version | Previous Version | Text Only | Print | Product List | Glossary On
Versions: 1 2 3 4 5 6 7 8 9 10 11 12 13 14 15 16 17 18 19 20 21 22 23 24 25 26 27 28 29 30 31 32 33 34 35 36 37 38 39 40 41 42 43 44 45 46 47 48 49 50
007
NZUS43 KILX 012210
HWRILX

AREA WEATHER ROUNDUP
NATIONAL WEATHER SERVICE, LINCOLN IL
500 PM CDT SAT OCT 01 2016


CITY           SKY/WX    TMP DP  RH WIND       PRES   REMARKS
BLOOMINGTON    PTSUNNY   69  56  62 N5        29.99R
CHAMPAIGN      MOSUNNY   68  57  68 NE6       29.98S
DANVILLE       RAIN      64  58  81 CALM      29.96S
DECATUR        MOSUNNY   70  55  59 NW6       29.98S
EFFINGHAM      CLOUDY    67  62  83 W5        30.01R
FLORA          PTSUNNY   69  61  73 W7        30.00R
GALESBURG      PTSUNNY   67  60  77 W9        30.00S
JACKSONVILLE   CLOUDY    65  61  85 N5        30.01R
LACON          PTSUNNY   72  54  52 N3        29.96F
LAWRENCEVILLE  PTSUNNY   71  57  61 SW9       29.98S
LITCHFIELD     RAIN      63  60  91 N5        30.01S
$$


CITY           SKY/WX    TMP DP  RH WIND       PRES   REMARKS
LINCOLN        CLOUDY    71  59  66 SW5       29.98S
MACOMB         CLOUDY    64  60  88 NW8       30.03S
MATTOON        MOSUNNY   68  54  60 W7        29.97S
MT CARMEL AP   CLOUDY    71  59  67 W3        29.98S
OLNEY-NOBLE AP CLOUDY    72  59  64 W6        29.99S
PARIS          CLOUDY    64  61  89 CALM      29.99S
PEORIA         SUNNY     70  58  65 CALM      29.98S
PONTIAC        CLOUDY    65  60  82 NE5       29.99S
RANTOUL        CLOUDY    68  59  72 NE7       29.98S
ROBINSON       PTSUNNY   70  58  67 CALM      29.99S
SPRINGFIELD    CLOUDY    68  60  75 W8        30.00R
TAYLORVILLE    MOSUNNY   65  59  78 W7        30.00S
$$

...REGIONAL REPORTS...


CITY           SKY/WX    TMP DP  RH WIND       PRES   REMARKS
CHICAGO O`HARE CLOUDY    61  59  93 N9        29.97S FOG
KANKAKEE       CLOUDY    63  59  86 NW6       29.99S
MOLINE         CLOUDY    70  59  68 NW7       29.99F
MOUNT STERLING CLOUDY    64  58  78 NW8       30.01S
MOUNT VERNON   CLOUDY    66  57  72 CALM      30.02S
PITTSFIELD     CLOUDY    68  59  72 NW8       30.03S
QUINCY         CLOUDY    67  57  70 NW7       30.02S
ROCKFORD       CLOUDY    62  58  86 N9        30.02R
$$


CITY           SKY/WX    TMP DP  RH WIND       PRES   REMARKS
BURLINGTON     CLOUDY    64  61  90 NW5       30.01F
CEDAR RAPIDS   CLOUDY    64  61  90 N6        30.03S
DES MOINES     CLOUDY    66  58  75 W3        30.04F
KIRKSVILLE     CLOUDY    66  57  72 NW5       30.05S
OTTUMWA        CLOUDY    66  56  70 NW7       30.03S
ST LOUIS       PTSUNNY   70  57  63 W10       30.02S
$$


CITY           SKY/WX    TMP DP  RH WIND       PRES   REMARKS
TERRE HAUTE    LGT RAIN  64  58  80 NE7       29.99S
EVANSVILLE     PTSUNNY   69  61  75 SW5       30.00S
INDIANAPOLIS   LGT RAIN  61  56  83 SW9       29.99S
LAFAYETTE      CLOUDY    62  59  90 CALM      29.98S
MADISON        PTSUNNY   60  57  89 N12       30.03S
MILWAUKEE      LGT RAIN  61  59  93 N9        30.01R
$$






USA.gov is the U.S. government's official web portal to all federal, state and local government web resources and services.